| time (UTC) | temp F | wind direction | speed knots | gust knots | rain 1hr in | rain 24hr in | rain mn in | humidity % | barometer mb |
| 20260905042441 | 58 | 275 | 0.0 | 0.0 | 0.00 | 0.00 | 0.00 | 83 | 1017.7 |
| 20260905041939 | 58 | 275 | 0.0 | 0.9 | 0.00 | 0.00 | 0.00 | 82 | 1017.6 |
| 20260905041437 | 58 | 275 | 0.0 | 0.9 | 0.00 | 0.00 | 0.00 | 81 | 1017.5 |
| 20260905040434 | 59 | 274 | 0.0 | 0.0 | 0.00 | 0.00 | 0.00 | 80 | 1017.7 |
| 20260905035936 | 59 | 274 | 0.0 | 0.9 | 0.00 | 0.00 | 0.00 | 80 | 1017.7 |
| 20260905035436 | 59 | 274 | 0.0 | 0.9 | 0.00 | 0.00 | 0.00 | 81 | 1017.6 |
| 20260905034936 | 59 | 274 | 0.0 | 0.0 | 0.00 | 0.00 | 0.00 | 80 | 1017.4 |
| 20260905034424 | 59 | 274 | 0.0 | 0.9 | 0.00 | 0.00 | 0.00 | 80 | 1017.5 |
| 20260905033924 | 59 | 274 | 0.0 | 0.9 | 0.00 | 0.00 | 0.00 | 80 | 1017.7 |
| 20260905033422 | 58 | 274 | 0.0 | 0.0 | 0.00 | 0.00 | 0.00 | 81 | 1017.4 |
| 20260905032927 | 59 | 274 | 0.0 | 0.0 | 0.00 | 0.00 | 0.00 | 80 | 1017.6 |
| 20260905031426 | 59 | 274 | 0.0 | 0.0 | 0.00 | 0.00 | 0.00 | 79 | 1017.6 |
| 20260905030930 | 59 | 274 | 0.0 | 0.0 | 0.00 | 0.00 | 0.00 | 78 | 1017.8 |
| 20260905030422 | 60 | 274 | 0.0 | 0.0 | 0.00 | 0.00 | 0.00 | 77 | 1017.7 |
| 20260905025927 | 60 | 274 | 0.0 | 0.0 | 0.00 | 0.00 | 0.00 | 76 | 1017.7 |
| 20260905024358 | 60 | 274 | 0.0 | 0.9 | 0.00 | 0.00 | 0.00 | 74 | 1017.8 |
| 20260905023848 | 60 | 275 | 0.9 | 0.9 | 0.00 | 0.00 | 0.00 | 75 | 1017.8 |
| 20260905023346 | 60 | 274 | 0.0 | 0.0 | 0.00 | 0.00 | 0.00 | 75 | 1017.7 |
| 20260905022835 | 60 | 274 | 0.0 | 0.0 | 0.00 | 0.00 | 0.00 | 75 | 1017.6 |
| 20260905022334 | 60 | 274 | 0.0 | 0.0 | 0.00 | 0.00 | 0.00 | 73 | 1017.7 |
| 20260905021836 | 60 | 274 | 0.0 | 0.0 | 0.00 | 0.00 | 0.00 | 73 | 1017.5 |
| 20260905021336 | 60 | 273 | 0.0 | 0.0 | 0.00 | 0.00 | 0.00 | 73 | 1017.6 |
| 20260905020838 | 60 | 275 | 0.0 | 0.0 | 0.00 | 0.00 | 0.00 | 73 | 1017.6 |
| 20260905020323 | 60 | 275 | 0.0 | 0.0 | 0.00 | 0.00 | 0.00 | 72 | 1017.6 |
| 20260905015824 | 60 | 275 | 0.0 | 0.0 | 0.00 | 0.00 | 0.00 | 71 | 1017.3 |
| 20260905015324 | 60 | 274 | 0.0 | 0.0 | 0.00 | 0.00 | 0.00 | 72 | 1017.7 |
| 20260905014821 | 61 | 274 | 0.0 | 0.0 | 0.00 | 0.00 | 0.00 | 71 | 1017.5 |
| 20260905014326 | 61 | 275 | 0.0 | 0.9 | 0.00 | 0.00 | 0.00 | 71 | 1017.5 |
| 20260905013827 | 61 | 276 | 0.0 | 0.9 | 0.00 | 0.00 | 0.00 | 72 | 1017.5 |
| 20260905013325 | 61 | 275 | 0.0 | 0.0 | 0.00 | 0.00 | 0.00 | 71 | 1017.7 |
| 20260905012328 | 61 | 275 | 0.0 | 0.0 | 0.00 | 0.00 | 0.00 | 70 | 1017.5 |
| 20260905011821 | 61 | 275 | 0.0 | 0.0 | 0.00 | 0.00 | 0.00 | 70 | 1017.6 |
| 20260905011323 | 61 | 275 | 0.0 | 0.0 | 0.00 | 0.00 | 0.00 | 70 | 1017.4 |
| 20260905010824 | 61 | 275 | 0.0 | 0.0 | 0.00 | 0.00 | 0.00 | 71 | 1017.5 |
| 20260905010325 | 62 | 275 | 0.0 | 0.0 | 0.00 | 0.00 | 0.00 | 71 | 1017.3 |
| 20260905005823 | 62 | 275 | 0.0 | 0.0 | 0.00 | 0.00 | 0.00 | 72 | 1017.5 |
| 20260905005327 | 62 | 275 | 0.0 | 0.0 | 0.00 | 0.00 | 0.00 | 71 | 1017.7 |
| 20260905004328 | 62 | 275 | 0.0 | 0.0 | 0.00 | 0.00 | 0.00 | 71 | 1017.6 |
| 20260905003824 | 63 | 275 | 0.0 | 0.0 | 0.00 | 0.00 | 0.00 | 71 | 1017.6 |
| 20260905003324 | 63 | 275 | 0.0 | 0.0 | 0.00 | 0.00 | 0.00 | 70 | 1017.6 |
| 20260905002826 | 63 | 280 | 0.0 | 0.0 | 0.00 | 0.00 | 0.00 | 68 | 1017.7 |
| 20260905002331 | 63 | 280 | 0.0 | 0.0 | 0.00 | 0.00 | 0.00 | 69 | 1017.8 |
| 20260905001822 | 63 | 280 | 0.0 | 0.0 | 0.00 | 0.00 | 0.00 | 69 | 1017.7 |
| 20260905001326 | 63 | 280 | 0.0 | 0.0 | 0.00 | 0.00 | 0.00 | 69 | 1017.7 |
| 20260905000828 | 63 | 280 | 0.0 | 0.0 | 0.00 | 0.00 | 0.00 | 69 | 1017.8 |
| 20260905000325 | 63 | 280 | 0.0 | 0.0 | 0.00 | 0.00 | 0.00 | 68 | 1017.7 |
| 20260904235758 | 64 | 280 | 0.0 | 0.0 | 0.00 | 0.00 | 0.00 | 68 | 1017.6 |
| 20260904235306 | 64 | 280 | 0.0 | 0.9 | 0.00 | 0.00 | 0.00 | 68 | 1017.8 |
| 20260904234237 | 64 | 277 | 0.0 | 1.7 | 0.00 | 0.00 | 0.00 | 69 | 1017.8 |
| 20260904233721 | 64 | 263 | 0.0 | 0.0 | 0.00 | 0.00 | 0.00 | 69 | 1017.8 |
| 20260904233224 | 64 | 263 | 0.0 | 0.0 | 0.00 | 0.00 | 0.00 | 68 | 1017.9 |
| 20260904232726 | 65 | 263 | 0.0 | 0.0 | 0.00 | 0.00 | 0.00 | 68 | 1018.0 |
| 20260904232225 | 65 | 263 | 0.0 | 0.0 | 0.00 | 0.00 | 0.00 | 68 | 1018.1 |
| 20260904231724 | 65 | 263 | 0.0 | 0.0 | 0.00 | 0.00 | 0.00 | 67 | 1017.9 |
| 20260904231222 | 65 | 263 | 0.0 | 0.0 | 0.00 | 0.00 | 0.00 | 67 | 1017.8 |
| 20260904230722 | 65 | 263 | 0.0 | 0.0 | 0.00 | 0.00 | 0.00 | 67 | 1017.8 |
| 20260904230224 | 65 | 263 | 0.0 | 0.0 | 0.00 | 0.00 | 0.00 | 67 | 1018.0 |
| 20260904225711 | 65 | 263 | 0.0 | 0.0 | 0.00 | 0.00 | 0.00 | 66 | 1017.9 |
| 20260904224654 | 65 | 263 | 0.0 | 0.0 | 0.00 | 0.00 | 0.00 | 66 | 1017.8 |
| 20260904223649 | 66 | 278 | 0.0 | 0.0 | 0.00 | 0.00 | 0.00 | 66 | 1017.9 |
| 20260904222637 | 67 | 279 | 0.0 | 0.0 | 0.00 | 0.00 | 0.00 | 64 | 1017.8 |
| 20260904222142 | 67 | 279 | 0.0 | 0.0 | 0.00 | 0.00 | 0.00 | 63 | 1017.8 |
| 20260904221637 | 67 | 279 | 0.0 | 0.9 | 0.00 | 0.00 | 0.00 | 63 | 1017.9 |
| 20260904220636 | 68 | 279 | 0.0 | 0.0 | 0.00 | 0.00 | 0.00 | 62 | 1018.0 |
| 20260904220133 | 68 | 279 | 0.0 | 0.9 | 0.00 | 0.00 | 0.00 | 61 | 1018.1 |
| 20260904215138 | 68 | 278 | 0.0 | 0.0 | 0.00 | 0.00 | 0.00 | 61 | 1018.0 |
| 20260904214639 | 69 | 280 | 0.0 | 0.0 | 0.00 | 0.00 | 0.00 | 60 | 1017.9 |
| 20260904214137 | 69 | 280 | 0.0 | 0.0 | 0.00 | 0.00 | 0.00 | 60 | 1017.8 |
| 20260904213639 | 70 | 280 | 0.0 | 0.0 | 0.00 | 0.00 | 0.00 | 59 | 1017.7 |
| 20260904213136 | 70 | 281 | 0.0 | 0.0 | 0.00 | 0.00 | 0.00 | 57 | 1017.9 |
| 20260904212637 | 70 | 281 | 0.0 | 0.0 | 0.00 | 0.00 | 0.00 | 57 | 1018.0 |
| 20260904212136 | 71 | 281 | 0.0 | 0.9 | 0.00 | 0.00 | 0.00 | 57 | 1017.9 |
| 20260904211134 | 71 | 278 | 0.0 | 0.9 | 0.00 | 0.00 | 0.00 | 56 | 1018.1 |
| 20260904210636 | 71 | 273 | 0.0 | 0.0 | 0.00 | 0.00 | 0.00 | 56 | 1018.0 |
| 20260904210133 | 72 | 274 | 0.0 | 0.9 | 0.00 | 0.00 | 0.00 | 56 | 1017.9 |
| 20260904205637 | 72 | 278 | 0.0 | 0.9 | 0.00 | 0.00 | 0.00 | 55 | 1018.0 |
| 20260904205136 | 72 | 248 | 0.0 | 0.0 | 0.00 | 0.00 | 0.00 | 56 | 1018.0 |
| 20260904204633 | 72 | 240 | 0.0 | 0.0 | 0.00 | 0.00 | 0.00 | 56 | 1017.8 |
| 20260904204134 | 72 | 240 | 0.0 | 0.0 | 0.00 | 0.00 | 0.00 | 55 | 1017.7 |
| 20260904203645 | 72 | 240 | 0.0 | 0.0 | 0.00 | 0.00 | 0.00 | 55 | 1017.8 |
| 20260904203137 | 73 | 240 | 0.0 | 0.0 | 0.00 | 0.00 | 0.00 | 56 | 1017.9 |
| 20260904202638 | 73 | 242 | 0.0 | 0.0 | 0.00 | 0.00 | 0.00 | 56 | 1017.9 |
| 20260904201637 | 74 | 215 | 0.0 | 0.0 | 0.00 | 0.00 | 0.00 | 55 | 1017.9 |
| 20260904201137 | 75 | 215 | 0.0 | 0.0 | 0.00 | 0.00 | 0.00 | 54 | 1017.8 |
| 20260904200639 | 75 | 225 | 0.0 | 0.0 | 0.00 | 0.00 | 0.00 | 53 | 1017.9 |
| 20260904200135 | 75 | 227 | 0.0 | 0.0 | 0.00 | 0.00 | 0.00 | 53 | 1017.9 |
| 20260904195634 | 76 | 235 | 0.0 | 0.0 | 0.00 | 0.00 | 0.00 | 52 | 1017.7 |
| 20260904194133 | 76 | 196 | 0.0 | 0.0 | 0.00 | 0.00 | 0.00 | 51 | 1017.9 |
| 20260904193636 | 76 | 196 | 0.0 | 0.0 | 0.00 | 0.00 | 0.00 | 51 | 1017.6 |
| 20260904193144 | 77 | 196 | 0.0 | 0.9 | 0.00 | 0.00 | 0.00 | 50 | 1017.6 |
| 20260904192636 | 77 | 200 | 0.0 | 0.9 | 0.00 | 0.00 | 0.00 | 49 | 1017.7 |
| 20260904192138 | 78 | 201 | 0.0 | 0.9 | 0.00 | 0.00 | 0.00 | 49 | 1017.6 |
| 20260904191626 | 78 | 195 | 0.0 | 0.9 | 0.00 | 0.00 | 0.00 | 49 | 1017.5 |
| 20260904191127 | 78 | 140 | 0.0 | 0.9 | 0.00 | 0.00 | 0.00 | 48 | 1017.6 |
| 20260904190624 | 79 | 110 | 0.0 | 0.9 | 0.00 | 0.00 | 0.00 | 46 | 1017.6 |
| 20260904190122 | 80 | 96 | 0.0 | 0.9 | 0.00 | 0.00 | 0.00 | 45 | 1017.5 |
| 20260904185625 | 81 | 12 | 0.0 | 0.9 | 0.00 | 0.00 | 0.00 | 42 | 1017.5 |
| 20260904185121 | 82 | 333 | 0.0 | 0.9 | 0.00 | 0.00 | 0.00 | 40 | 1017.5 |
| 20260904184626 | 83 | 23 | 0.0 | 1.7 | 0.00 | 0.00 | 0.00 | 39 | 1017.3 |
| 20260904184124 | 84 | 305 | 0.0 | 1.7 | 0.00 | 0.00 | 0.00 | 37 | 1017.2 |
| 20260904183621 | 85 | 303 | 0.0 | 1.7 | 0.00 | 0.00 | 0.00 | 36 | 1017.1 |
| 20260904183122 | 86 | 305 | 0.0 | 2.6 | 0.00 | 0.00 | 0.00 | 34 | 1017.4 |
| 20260904182632 | 86 | 310 | 0.0 | 3.5 | 0.00 | 0.00 | 0.00 | 33 | 1017.0 |
| 20260904182113 | 86 | 346 | 2.6 | 3.5 | 0.00 | 0.00 | 0.00 | 32 | 1016.9 |
| 20260904181612 | 87 | 318 | 0.9 | 5.2 | 0.00 | 0.00 | 0.00 | 32 | 1016.9 |
| 20260904181111 | 87 | 307 | 2.6 | 5.2 | 0.00 | 0.00 | 0.00 | 33 | 1017.0 |
| 20260904180611 | 88 | 309 | 0.9 | 5.2 | 0.00 | 0.00 | 0.00 | 34 | 1016.7 |
| 20260904180118 | 88 | 322 | 2.6 | 7.0 | 0.00 | 0.00 | 0.00 | 33 | 1016.6 |
| 20260904175610 | 88 | 323 | 2.6 | 7.0 | 0.00 | 0.00 | 0.00 | 34 | 1016.6 |
| 20260904175110 | 88 | 309 | 2.6 | 7.8 | 0.00 | 0.00 | 0.00 | 34 | 1016.6 |
| 20260904174557 | 88 | 326 | 5.2 | 7.8 | 0.00 | 0.00 | 0.00 | 35 | 1016.6 |
| 20260904174058 | 88 | 317 | 3.5 | 5.2 | 0.00 | 0.00 | 0.00 | 37 | 1016.4 |
| 20260904173534 | 88 | 307 | 1.7 | 5.2 | 0.00 | 0.00 | 0.00 | 37 | 1016.3 |
| 20260904173036 | 89 | 332 | 0.0 | 5.2 | 0.00 | 0.00 | 0.00 | 37 | 1016.4 |
| 20260904172036 | 89 | 305 | 0.0 | 6.1 | 0.00 | 0.00 | 0.00 | 36 | 1016.3 |
| 20260904171539 | 89 | 300 | 2.6 | 6.1 | 0.00 | 0.00 | 0.00 | 36 | 1016.3 |
| 20260904171038 | 90 | 277 | 0.9 | 5.2 | 0.00 | 0.00 | 0.00 | 37 | 1016.2 |
| 20260904170041 | 90 | 314 | 0.0 | 3.5 | 0.00 | 0.00 | 0.00 | 36 | 1016.2 |
| 20260904165034 | 91 | 100 | 0.0 | 1.7 | 0.00 | 0.00 | 0.00 | 36 | 1016.3 |
| 20260904164034 | 91 | 310 | 0.9 | 7.0 | 0.00 | 0.00 | 0.00 | 35 | 1016.3 |
| 20260904163535 | 92 | 328 | 0.9 | 7.8 | 0.00 | 0.00 | 0.00 | 34 | 1016.4 |
| 20260904163036 | 92 | 329 | 4.3 | 7.8 | 0.00 | 0.00 | 0.00 | 34 | 1016.4 |
| 20260904162533 | 92 | 58 | 0.0 | 3.5 | 0.00 | 0.00 | 0.00 | 33 | 1016.4 |
| 20260904161524 | 92 | 312 | 3.5 | 6.1 | 0.00 | 0.00 | 0.00 | 32 | 1016.3 |
| 20260904161027 | 93 | 324 | 0.9 | 6.1 | 0.00 | 0.00 | 0.00 | 33 | 1016.1 |
| 20260904160528 | 93 | 320 | 1.7 | 6.1 | 0.00 | 0.00 | 0.00 | 33 | 1015.8 |
| 20260904160023 | 93 | 322 | 0.9 | 3.5 | 0.00 | 0.00 | 0.00 | 33 | 1016.0 |
| 20260904155023 | 93 | 326 | 0.9 | 3.5 | 0.00 | 0.00 | 0.00 | 33 | 1016.2 |
| 20260904154521 | 94 | 339 | 1.7 | 1.7 | 0.00 | 0.00 | 0.00 | 34 | 1016.1 |
| 20260904154021 | 94 | 47 | 0.0 | 3.5 | 0.00 | 0.00 | 0.00 | 34 | 1016.0 |
| 20260904153523 | 94 | 308 | 3.5 | 6.1 | 0.00 | 0.00 | 0.00 | 33 | 1016.0 |
| 20260904153022 | 94 | 313 | 3.5 | 6.1 | 0.00 | 0.00 | 0.00 | 33 | 1016.1 |
| 20260904152523 | 94 | 298 | 0.9 | 7.8 | 0.00 | 0.00 | 0.00 | 33 | 1016.0 |
| 20260904152024 | 94 | 7 | 3.5 | 7.8 | 0.00 | 0.00 | 0.00 | 32 | 1016.2 |
| 20260904151525 | 94 | 313 | 0.9 | 6.1 | 0.00 | 0.00 | 0.00 | 32 | 1016.1 |
| 20260904150528 | 94 | 314 | 0.0 | 5.2 | 0.00 | 0.00 | 0.00 | 30 | 1016.1 |
| 20260904150023 | 94 | 310 | 0.0 | 5.2 | 0.00 | 0.00 | 0.00 | 30 | 1016.3 |
| 20260904145525 | 94 | 327 | 2.6 | 7.8 | 0.00 | 0.00 | 0.00 | 31 | 1016.2 |
| 20260904145024 | 94 | 319 | 4.3 | 7.8 | 0.00 | 0.00 | 0.00 | 30 | 1016.3 |
| 20260904144523 | 94 | 334 | 2.6 | 7.0 | 0.00 | 0.00 | 0.00 | 31 | 1016.0 |
| 20260904144021 | 94 | 166 | 0.0 | 8.7 | 0.00 | 0.00 | 0.00 | 31 | 1016.2 |
| 20260904143530 | 95 | 318 | 1.7 | 8.7 | 0.00 | 0.00 | 0.00 | 31 | 1016.1 |
| 20260904143024 | 94 | 322 | 1.7 | 7.0 | 0.00 | 0.00 | 0.00 | 31 | 1016.3 |
| 20260904142522 | 94 | 305 | 3.5 | 7.8 | 0.00 | 0.00 | 0.00 | 30 | 1016.4 |
| 20260904142024 | 94 | 327 | 2.6 | 7.8 | 0.00 | 0.00 | 0.00 | 31 | 1016.3 |
| 20260904141521 | 94 | 319 | 2.6 | 7.0 | 0.00 | 0.00 | 0.00 | 31 | 1016.5 |
| 20260904141022 | 94 | 322 | 3.5 | 9.6 | 0.00 | 0.00 | 0.00 | 31 | 1016.4 |
| 20260904140527 | 94 | 342 | 0.0 | 9.6 | 0.00 | 0.00 | 0.00 | 31 | 1016.3 |
| 20260904140026 | 94 | 305 | 0.0 | 7.0 | 0.00 | 0.00 | 0.00 | 32 | 1016.4 |
| 20260904135526 | 95 | 322 | 3.5 | 9.6 | 0.00 | 0.00 | 0.00 | 32 | 1016.6 |
| 20260904135028 | 96 | 317 | 0.9 | 9.6 | 0.00 | 0.00 | 0.00 | 32 | 1016.6 |
| 20260904134526 | 97 | 318 | 1.7 | 8.7 | 0.00 | 0.00 | 0.00 | 32 | 1016.5 |
| 20260904134022 | 99 | 317 | 2.6 | 8.7 | 0.00 | 0.00 | 0.00 | 29 | 1016.6 |
| 20260904133027 | 100 | 147 | 0.0 | 0.9 | 0.00 | 0.00 | 0.00 | 25 | 1016.5 |
| 20260904132522 | 100 | 152 | 0.0 | 1.7 | 0.00 | 0.00 | 0.00 | 26 | 1016.5 |
| 20260904132025 | 99 | 348 | 0.0 | 5.2 | 0.00 | 0.00 | 0.00 | 26 | 1016.6 |
| 20260904131525 | 100 | 331 | 0.9 | 5.2 | 0.00 | 0.00 | 0.00 | 26 | 1016.5 |
| 20260904131029 | 100 | 241 | 0.0 | 1.7 | 0.00 | 0.00 | 0.00 | 24 | 1016.6 |
| 20260904130527 | 99 | 214 | 0.0 | 1.7 | 0.00 | 0.00 | 0.00 | 24 | 1016.6 |
| 20260904130028 | 99 | 355 | 0.9 | 1.7 | 0.00 | 0.00 | 0.00 | 25 | 1016.6 |
| 20260904125526 | 98 | 142 | 0.9 | 1.7 | 0.00 | 0.00 | 0.00 | 24 | 1016.8 |
| 20260904125033 | 99 | 46 | 0.0 | 1.7 | 0.00 | 0.00 | 0.00 | 26 | 1017.0 |
| 20260904124525 | 99 | 97 | 1.7 | 1.7 | 0.00 | 0.00 | 0.00 | 25 | 1016.7 |
| 20260904124024 | 99 | 228 | 0.9 | 1.7 | 0.00 | 0.00 | 0.00 | 25 | 1016.9 |
| 20260904123527 | 99 | 205 | 0.0 | 0.9 | 0.00 | 0.00 | 0.00 | 24 | 1017.1 |
| 20260904123026 | 99 | 162 | 0.0 | 0.9 | 0.00 | 0.00 | 0.00 | 26 | 1017.0 |
| 20260904122525 | 99 | 159 | 0.0 | 1.7 | 0.00 | 0.00 | 0.00 | 26 | 1016.9 |
| 20260904122010 | 98 | 150 | 0.0 | 1.7 | 0.00 | 0.00 | 0.00 | 26 | 1016.9 |
| 20260904121512 | 97 | 216 | 0.0 | 2.6 | 0.00 | 0.00 | 0.00 | 25 | 1017.2 |
| 20260904120958 | 97 | 148 | 0.0 | 2.6 | 0.00 | 0.00 | 0.00 | 26 | 1017.2 |
| 20260904120457 | 97 | 315 | 0.0 | 2.6 | 0.00 | 0.00 | 0.00 | 26 | 1017.3 |
| 20260904120007 | 97 | 131 | 0.0 | 1.7 | 0.00 | 0.00 | 0.00 | 24 | 1017.1 |
| 20260904115449 | 97 | 307 | 0.0 | 1.7 | 0.00 | 0.00 | 0.00 | 26 | 1017.2 |
| 20260904114948 | 98 | 306 | 0.9 | 3.5 | 0.00 | 0.00 | 0.00 | 24 | 1017.4 |
| 20260904114448 | 97 | 183 | 0.0 | 3.5 | 0.00 | 0.00 | 0.00 | 24 | 1017.4 |
| 20260904113939 | 96 | 241 | 0.0 | 1.7 | 0.00 | 0.00 | 0.00 | 23 | 1017.5 |
| 20260904112439 | 96 | 200 | 1.7 | 3.5 | 0.00 | 0.00 | 0.00 | 25 | 1017.8 |
| 20260904111437 | 96 | 276 | 0.0 | 1.7 | 0.00 | 0.00 | 0.00 | 27 | 1017.6 |
| 20260904110436 | 97 | 86 | 1.7 | 1.7 | 0.00 | 0.00 | 0.00 | 27 | 1018.0 |
| 20260904105937 | 95 | 135 | 0.9 | 1.7 | 0.00 | 0.00 | 0.00 | 27 | 1018.0 |
| 20260904105439 | 96 | 264 | 0.0 | 1.7 | 0.00 | 0.00 | 0.00 | 27 | 1017.9 |
| 20260904104937 | 96 | 146 | 0.9 | 2.6 | 0.00 | 0.00 | 0.00 | 28 | 1017.9 |
| 20260904104434 | 95 | 304 | 0.9 | 2.6 | 0.00 | 0.00 | 0.00 | 28 | 1017.9 |
| 20260904103936 | 96 | 221 | 0.0 | 1.7 | 0.00 | 0.00 | 0.00 | 28 | 1018.1 |
| 20260904103437 | 95 | 295 | 0.0 | 0.9 | 0.00 | 0.00 | 0.00 | 27 | 1018.2 |
| 20260904102424 | 95 | 162 | 0.0 | 0.9 | 0.00 | 0.00 | 0.00 | 32 | 1018.4 |
| 20260904101925 | 95 | 163 | 0.0 | 0.9 | 0.00 | 0.00 | 0.00 | 29 | 1018.3 |
| 20260904101426 | 94 | 163 | 0.0 | 0.9 | 0.00 | 0.00 | 0.00 | 31 | 1018.4 |
| 20260904100924 | 93 | 178 | 0.9 | 0.9 | 0.00 | 0.00 | 0.00 | 33 | 1018.6 |
| 20260904100425 | 93 | 145 | 0.9 | 0.9 | 0.00 | 0.00 | 0.00 | 33 | 1018.6 |
| 20260904095425 | 92 | 134 | 0.0 | 0.9 | 0.00 | 0.00 | 0.00 | 36 | 1018.4 |
| 20260904094424 | 91 | 134 | 0.0 | 0.9 | 0.00 | 0.00 | 0.00 | 39 | 1018.5 |
| 20260904093924 | 91 | 134 | 0.0 | 0.9 | 0.00 | 0.00 | 0.00 | 39 | 1018.6 |
| 20260904093421 | 89 | 135 | 0.0 | 0.9 | 0.00 | 0.00 | 0.00 | 41 | 1018.9 |
| 20260904092924 | 89 | 135 | 0.9 | 0.9 | 0.00 | 0.00 | 0.00 | 42 | 1018.9 |
| 20260904092422 | 89 | 136 | 0.0 | 0.9 | 0.00 | 0.00 | 0.00 | 42 | 1018.8 |
| 20260904091925 | 89 | 128 | 0.0 | 0.9 | 0.00 | 0.00 | 0.00 | 45 | 1018.8 |
| 20260904091424 | 88 | 128 | 0.0 | 0.0 | 0.00 | 0.00 | 0.00 | 42 | 1019.0 |
| 20260904090925 | 87 | 128 | 0.0 | 0.9 | 0.00 | 0.00 | 0.00 | 43 | 1018.9 |
| 20260904090422 | 87 | 128 | 0.9 | 0.9 | 0.00 | 0.00 | 0.00 | 42 | 1019.0 |
| 20260904085930 | 87 | 130 | 0.0 | 0.0 | 0.00 | 0.00 | 0.00 | 44 | 1019.1 |
| 20260904085422 | 86 | 130 | 0.0 | 0.9 | 0.00 | 0.00 | 0.00 | 45 | 1019.1 |
| 20260904084921 | 85 | 130 | 0.0 | 0.9 | 0.00 | 0.00 | 0.00 | 43 | 1019.1 |
| 20260904084424 | 86 | 292 | 0.0 | 0.0 | 0.00 | 0.00 | 0.00 | 43 | 1019.0 |
| 20260904083422 | 84 | 292 | 0.0 | 0.0 | 0.00 | 0.00 | 0.00 | 45 | 1019.1 |
| 20260904082421 | 83 | 292 | 0.0 | 0.0 | 0.00 | 0.00 | 0.00 | 53 | 1019.2 |
| 20260904081421 | 81 | 291 | 0.0 | 0.0 | 0.00 | 0.00 | 0.00 | 53 | 1019.0 |
| 20260904080921 | 80 | 291 | 0.0 | 0.0 | 0.00 | 0.00 | 0.00 | 57 | 1019.0 |
| 20260904080424 | 80 | 291 | 0.0 | 0.9 | 0.00 | 0.00 | 0.00 | 57 | 1019.0 |
| 20260904075920 | 79 | 292 | 0.0 | 0.9 | 0.00 | 0.00 | 0.00 | 55 | 1019.0 |
| 20260904075430 | 78 | 292 | 0.0 | 0.0 | 0.00 | 0.00 | 0.00 | 58 | 1019.1 |
| 20260904074921 | 78 | 292 | 0.0 | 0.0 | 0.00 | 0.00 | 0.00 | 58 | 1019.1 |
| 20260904074422 | 77 | 291 | 0.0 | 0.0 | 0.00 | 0.00 | 0.00 | 59 | 1018.9 |
| 20260904073920 | 76 | 292 | 0.0 | 0.0 | 0.00 | 0.00 | 0.00 | 61 | 1019.0 |
| 20260904072921 | 77 | 289 | 0.0 | 0.0 | 0.00 | 0.00 | 0.00 | 60 | 1018.9 |
| 20260904072420 | 75 | 289 | 0.0 | 0.0 | 0.00 | 0.00 | 0.00 | 60 | 1019.1 |
| 20260904071928 | 73 | 289 | 0.0 | 0.0 | 0.00 | 0.00 | 0.00 | 65 | 1019.1 |
| 20260904071423 | 72 | 289 | 0.0 | 0.0 | 0.00 | 0.00 | 0.00 | 66 | 1019.1 |
| 20260904070924 | 71 | 289 | 0.0 | 0.0 | 0.00 | 0.00 | 0.00 | 69 | 1019.1 |
| 20260904065923 | 70 | 289 | 0.0 | 0.0 | 0.00 | 0.00 | 0.00 | 69 | 1019.1 |
| 20260904065425 | 69 | 289 | 0.0 | 0.0 | 0.00 | 0.00 | 0.00 | 72 | 1019.1 |
| 20260904064921 | 69 | 289 | 0.0 | 0.0 | 0.00 | 0.00 | 0.00 | 72 | 1019.0 |
| 20260904064421 | 68 | 289 | 0.0 | 0.0 | 0.00 | 0.00 | 0.00 | 73 | 1018.9 |
| 20260904063923 | 68 | 289 | 0.0 | 0.0 | 0.00 | 0.00 | 0.00 | 73 | 1019.0 |
| 20260904063346 | 67 | 289 | 0.0 | 0.0 | 0.00 | 0.00 | 0.00 | 73 | 1018.8 |
| 20260904062847 | 67 | 289 | 0.0 | 0.0 | 0.00 | 0.00 | 0.00 | 74 | 1019.0 |
| 20260904061837 | 67 | 289 | 0.0 | 0.0 | 0.00 | 0.00 | 0.00 | 73 | 1018.9 |
| 20260904061339 | 66 | 289 | 0.0 | 0.0 | 0.00 | 0.00 | 0.00 | 76 | 1018.8 |
| 20260904060832 | 65 | 289 | 0.0 | 0.0 | 0.00 | 0.00 | 0.00 | 76 | 1018.8 |
| 20260904055835 | 64 | 289 | 0.0 | 0.0 | 0.00 | 0.00 | 0.00 | 78 | 1018.9 |
| 20260904055339 | 64 | 288 | 0.0 | 0.9 | 0.00 | 0.00 | 0.00 | 79 | 1018.9 |
| 20260904054338 | 61 | 290 | 0.0 | 0.0 | 0.00 | 0.00 | 0.00 | 84 | 1018.8 |
| 20260904053837 | 60 | 291 | 0.0 | 0.9 | 0.00 | 0.00 | 0.00 | 86 | 1018.9 |
| 20260904053336 | 60 | 291 | 0.0 | 0.9 | 0.00 | 0.00 | 0.00 | 86 | 1018.9 |
| 20260904052837 | 60 | 291 | 0.9 | 0.9 | 0.00 | 0.00 | 0.00 | 87 | 1019.0 |
| 20260904052338 | 59 | 291 | 0.0 | 0.0 | 0.00 | 0.00 | 0.00 | 87 | 1018.9 |
| 20260904051836 | 59 | 291 | 0.0 | 0.0 | 0.00 | 0.00 | 0.00 | 86 | 1018.9 |
| 20260904051338 | 59 | 291 | 0.0 | 0.0 | 0.00 | 0.00 | 0.00 | 86 | 1018.9 |
| 20260904050838 | 59 | 291 | 0.0 | 0.0 | 0.00 | 0.00 | 0.00 | 86 | 1018.7 |
| 20260904050335 | 60 | 291 | 0.0 | 0.0 | 0.00 | 0.00 | 0.00 | 85 | 1018.7 |
| 20260904045840 | 60 | 291 | 0.0 | 0.0 | 0.00 | 0.00 | 0.00 | 85 | 1018.8 |
| 20260904045336 | 60 | 291 | 0.0 | 0.0 | 0.00 | 0.00 | 0.00 | 85 | 1018.9 |
| 20260904044836 | 60 | 291 | 0.0 | 0.0 | 0.00 | 0.00 | 0.00 | 85 | 1018.6 |
| 20260904044335 | 60 | 291 | 0.0 | 0.0 | 0.00 | 0.00 | 0.00 | 85 | 1018.7 |
| 20260904043834 | 60 | 291 | 0.0 | 0.0 | 0.00 | 0.00 | 0.00 | 85 | 1018.7 |
| 20260904043337 | 60 | 291 | 0.0 | 0.0 | 0.00 | 0.00 | 0.00 | 85 | 1018.7 |